User: anonymous   Login
Location: Unspecified
(0.0000°N, 0.0000°E)
Time: 10:04:19
(UTC+00:00)
Language:

Tiros N - Orbit

View from above orbital plane
View from above orbital plane
View from above satellite
View from above satellite

Ground track
Ground track

The orbit data is extracted from the following two-line orbital elements,

1 11060U 78096A   18319.98669079  .00000010  00000-0  26290-4 0  9998
2 11060  98.8236  14.0059 0009720 306.3761  53.6517 14.18214816286233
Epoch (UTC): 15 November 2018 23:40:50
Eccentricity: 0.0009720
inclination: 98.8236°
perigee height: 824 km
apogee height: 838 km
right ascension of ascending node: 14.0059°
argument of perigee: 306.3761°
revolutions per day: 14.18214816
mean anomaly at epoch: 53.6517°
orbit number at epoch: 28623

The dashed part of the orbit path shows where the satellite is in the earth's shadow,  

DLR